SCP
0 0 -0 0 0 -0 0 -0 -0 0 0 0 0 0 -0 -0 0 -0 0 0 0 0 -0 -0 -0 -0 -0 -0 -0 -0 -0 -0 -0 -0 0 0 0 0 0 0 0 0 0 0 0 0 0 0 0
0 0 -0 -0 -0 0 0 -0 0 -0 -0 0 0 0 0 0 -0 0 0 0 0 0 -0 -0 -0 -0 -0 -0 -0 -0 -0 -0 -0 -0 -0 -0 0 0 -0 0 0 0 -0 -0 0 0 0 0 0
-0 -0 -0 -0 -0 0 0 0 -0 -0 -0 -0 0 -0 0 0 0 -0 -0 0 -0 -0 -0 -0 -0 -0 -0 -0 -0 -0 -0 -0 -0 -0 -0 -0 -0 -0 -0 0 0 -0 -0 -0 0 -0 -0 0 0
-0 -0 -0 0 0 0 0 0 -0 0 0 0 -0 0 0 -0 -0 0 -0 -0 -0 0 -0 -0 0 0 -0 -0 -0 -0 -0 -0 -0 -0 -0 -0 0 -0 0 0 -0 -0 0 0 0 0 0 0 0
-0 -0 0 0 0 0 0 -0 -0 0 0 0 -0 0 -0 -0 -0 -0 0 -0 -0 -0 0 -0 -0 -0 -0 -0 -0 -0 -0 -0 -0 -0 0 0 0 0 0 0 0 0 0 0 0 0 0 0 0
-0 -0 0 0 0 0 0 -0 -0 0 0 0 0 0 0 -0 -0 -0 -0 -0 -0 0 -0 -0 0 -0 -0 -0 -0 -0 -0 0 0 0 0 0 0 0 0 0 0 0 0 0 0 0 0 0 0
0 0 0 0 0 0 0 -0 0 0 0 0 0 0 -0 -0 -0 0 -0 -0 -0 -0 0 0 -0 -0 -0 -0 -0 0 0 0 0 0 0 0 0 0 0 0 0 0 0 0 0 0 0 0 0
0 0 0 0 0 0 0 0 0 -0 0 0 0 0 -0 -0 -0 0 0 0 0 -0 0 0 0 0 -0 0 -0 -0 0 0 0 0 0 0 0 0 0 0 0 0 0 0 0 0 0 0 0
0 0 0 0 0 0 0 0 0 0 0 0 0 -0 -0 -0 -0 0 0 0 0 0 0 0 0 0 0 0 0 0 -0 0 0 0 0 0 0 0 0 0 0 0 0 0 0 0 0 0 0
0 0 0 0 0 0 0 0 0 0 0 0 0 0 0 0 0 0 0 0 0 0 0 0 0 0 0 0 0 0 0 0 0 0 0 0 0 0 0 0 0 0 0 0 0 0 0 0 0
0 0 0 0 0 0 0 0 0 0 0 0 0 0 0 0 0 0 0 0 0 0 0 0 0 0 0 0 0 0 0 0 0 0 0 0 0 0 0 0 0 0 0 0 0 0 0 0 0
0 0 0 0 0 0 0 0 0 0 0 0 0 0 0 0 0 0 0 0 0 0 0 0 0 0 0 0 0 0 0 0 1 0 0 0 0 0 0 0 0 0 0 0 0 0 0 0 0
0 0 0 0 0 0 0 0 0 0 0 0 0 0 0 0 0 0 0 0 0 0 0 0 0 0 0 0 0 0 0 0 0 0 0 0 0 0 0 0 0 0 0 0 0 0 0 0 0
0 0 0 0 0 0 0 0 0 0 0 0 0 0 0 0 0 0 0 0 0 0 0 0 0 0 0 0 0 0 0 0 0 0 0 0 0 0 0 0 0 0 0 0 0 0 0 0 0
0 0 0 0 0 0 0 0 0 0 0 0 0 0 0 0 0 0 0 0 0 0 0 0 0 0 0 0 0 0 0 0 0 0 0 0 0 0 0 0 0 0 0 0 0 0 0 0 0
0 0 0 0 0 0 0 0 0 0 0 0 0 0 0 0 0 0 0 0 0 0 0 0 0 0 0 0 0 0 0 0 0 0 0 0 0 0 0 0 0 0 0 0 0 0 0 0 0
0 0 0 0 0 0 0 0 0 0 0 0 0 0 0 0 0 0 0 0 0 0 0 0 0 0 0 0 0 0 0 0 0 0 0 0 0 0 0 0 0 0 0 0 0 0 0 0 0
0 0 0 0 0 0 0 0 0 0 0 0 0 0 0 0 0 0 0 0 0 0 0 0 0 0 0 0 0 0 0 0 0 0 0 0 0 0 0 0 0 0 0 0 0 0 0 0 0
0 0 0 0 0 0 0 0 0 0 0 0 0 0 0 0 0 0 0 0 0 0 0 0 0 0 0 0 0 0 0 0 0 0 0 0 0 0 0 0 0 0 0 0 0 0 0 0 0
0 0 0 0 0 0 0 0 0 0 0 0 0 0 0 0 0 0 0 0 0 0 0 0 0 0 0 0 0 0 0 0 0 0 0 0 0 0 0 0 0 0 0 0 0 0 0 0 0
0 0 0 0 0 0 0 0 0 0 0 0 0 0 0 0 0 0 0 0 0 0 0 0 0 0 0 0 0 0 0 0 0 0 0 0 0 0 0 0 0 0 0 0 0 0 0 0 0
0 0 0 0 0 0 0 0 0 0 0 0 0 0 0 0 0 0 0 0 0 0 0 0 0 0 0 0 0 0 0 0 0 0 0 0 0 0 0 0 0 0 0 0 0 0 0 0 0
0 0 0 0 0 0 0 0 0 0 0 0 0 0 0 0 0 0 0 0 0 0 0 0 0 0 0 0 0 0 0 0 0 0 0 0 0 0 0 0 0 0 0 0 0 0 0 0 0
0 0 0 0 0 0 0 0 0 0 0 0 0 0 0 0 0 0 0 0 0 0 0 0 0 0 0 0 0 0 0 0 0 0 0 0 0 0 0 0 0 0 0 0 0 0 0 0 0
0 0 0 0 0 0 0 0 0 0 0 0 0 0 0 0 0 0 0 0 0 0 0 0 0 0 0 0 0 0 0 0 0 0 0 0 0 0 0 0 0 0 0 0 0 0 0 0 0
0 0 0 0 0 0 0 0 0 0 0 0 0 0 0 0 0 0 0 0 0 0 0 0 0 0 0 0 0 0 0 0 0 0 0 0 0 0 0 0 0 0 0 0 0 0 0 0 0
0 0 0 0 0 0 0 0 0 0 0 0 0 0 0 0 0 0 0 0 0 0 0 0 0 0 0 0 0 0 0 0 0 0 0 0 0 0 0 0 0 0 0 0 0 0 0 0 0
0 0 0 0 0 0 0 0 0 0 0 0 0 0 0 0 0 0 0 0 0 0 0 0 0 0 0 0 0 0 0 0 0 0 0 0 0 0 0 0 0 0 0 0 0 0 0 0 0
0 0 0 0 0 0 0 0 0 0 0 0 0 0 0 0 0 0 0 0 0 0 0 0 0 0 0 0 0 0 0 0 0 0 0 0 0 0 0 0 0 0 0 0 0 0 0 0 0
0 0 0 0 0 0 0 0 0 0 0 0 0 0 0 0 0 0 0 0 0 0 0 0 0 0 0 0 0 0 0 0 0 0 0 0 0 0 0 0 0 0 0 0 0 0 0 0 0
Wind_Speed_500mb
3 1 1 1 5 4 8 8 4 4 3 4 4 4 18 13 11 9 4 5 3 17 29 27 28 26 23 20 17 14 10 6 5 6 8 7 8 8 9 10 13 18 17 13 13 12 12 12 12
3 4 3 1 3 12 11 3 7 8 5 1 3 2 8 14 11 9 8 5 7 18 29 27 28 25 22 19 17 14 9 4 2 4 6 7 7 6 4 9 14 17 14 10 10 10 10 10 9
7 6 2 2 3 10 11 7 6 5 3 1 5 7 5 8 12 8 10 10 10 16 29 28 27 24 22 20 18 15 11 8 2 4 6 6 6 5 5 8 14 22 15 11 8 7 7 7 7
4 2 6 1 16 6 7 8 6 8 4 3 3 11 10 12 6 9 13 13 12 12 22 29 28 26 23 22 20 18 14 12 6 4 6 7 7 6 7 7 12 23 22 18 14 8 8 8 8
4 1 4 9 8 6 3 2 4 5 5 7 1 7 10 10 11 9 10 11 13 16 17 23 28 28 26 24 22 22 20 16 11 9 9 7 4 6 8 11 13 17 19 17 16 10 9 8 9
2 0 6 11 10 5 4 4 5 5 4 5 5 10 9 8 6 6 6 7 9 14 19 20 24 30 29 26 24 22 23 20 17 15 10 7 4 4 6 7 9 13 15 15 16 11 10 10 9
4 2 6 11 16 11 8 3 6 6 9 8 5 7 14 8 5 3 5 5 6 12 18 21 22 27 32 32 29 24 22 22 19 16 14 12 11 9 7 10 13 14 16 16 16 14 12 10 9
6 4 11 7 17 11 8 7 4 1 7 5 2 7 9 8 1 3 7 9 11 9 11 15 20 26 30 32 33 29 28 26 23 20 17 15 16 17 15 14 19 18 20 19 16 16 16 12 10
6 6 10 15 15 12 8 10 4 2 2 5 4 3 8 14 10 11 14 14 15 17 17 17 19 21 25 30 33 35 31 29 24 20 18 18 17 19 18 20 21 19 21 25 23 18 16 16 13
3 4 9 6 8 13 11 5 5 7 3 7 5 2 2 4 7 14 19 21 21 23 25 26 25 25 25 25 27 28 30 29 24 22 21 20 21 22 24 24 19 19 22 25 25 29 25 21 19
1 1 8 9 8 8 9 5 5 5 6 4 6 8 3 3 2 4 7 8 11 11 13 18 25 29 30 29 27 26 27 27 26 24 25 26 26 31 27 24 21 22 21 24 26 27 28 28 26
4 4 7 8 10 8 6 5 6 10 5 13 7 11 4 0 2 3 5 9 10 11 12 13 17 24 31 33 30 28 22 25 26 31 24 20 21 26 22 22 20 21 19 23 26 26 26 33 30
5 6 7 9 12 9 9 14 7 12 19 15 12 9 2 4 7 8 8 8 10 11 12 12 12 15 23 29 32 28 25 27 28 27 26 27 26 17 21 18 21 20 23 18 20 22 27 29 31
3 5 8 10 10 12 12 8 9 11 22 21 15 10 8 5 4 5 7 7 6 6 9 11 11 9 13 26 32 32 28 25 26 24 21 21 26 27 28 26 25 23 26 25 23 23 25 27 28
0 8 11 15 10 11 16 8 17 21 27 18 13 8 4 3 4 1 1 1 2 3 4 2 4 6 10 27 36 32 26 21 20 16 11 5 9 16 17 20 23 27 28 26 27 32 34 30 34
2 4 8 7 9 5 16 7 14 30 25 15 9 4 2 4 5 4 4 6 9 11 11 13 12 11 16 26 31 30 26 22 19 13 8 8 13 16 18 15 14 14 20 22 24 30 35 38 41
5 11 14 5 6 5 15 2 20 26 19 13 10 8 6 3 2 3 5 8 12 16 20 23 25 25 24 29 31 27 22 20 15 10 5 7 7 9 9 10 18 17 18 21 24 25 28 31 34
13 11 10 13 6 9 12 20 19 21 17 13 13 11 8 6 6 8 11 14 18 22 24 27 30 33 32 32 32 33 27 23 15 8 6 4 6 7 10 13 14 17 18 20 23 23 23 24 27
3 8 18 5 2 7 21 25 23 20 16 19 18 14 13 12 15 17 19 22 26 29 32 35 37 38 38 35 30 25 24 23 17 11 8 2 2 4 6 10 13 16 17 19 19 21 24 27 31
11 17 28 10 6 8 17 26 27 26 22 26 27 26 23 23 23 28 30 32 35 37 37 37 36 36 34 33 34 32 31 28 24 21 18 15 11 9 8 7 7 9 11 12 16 18 19 24 29
22 27 24 17 4 9 11 30 37 15 16 17 25 27 29 34 42 44 44 46 48 49 51 51 50 48 46 41 37 34 31 29 25 22 18 17 16 16 16 17 18 18 18 19 21 22 24 25 26
28 24 19 15 8 18 4 15 10 17 19 24 31 35 36 35 38 46 51 53 50 49 48 45 42 39 38 34 29 27 23 21 21 17 15 14 13 14 15 17 18 20 23 23 27 28 30 30 32
12 10 18 13 19 12 15 14 14 8 21 27 39 40 41 40 47 51 50 52 51 48 44 41 38 35 32 26 20 14 13 18 19 17 14 14 15 16 18 19 21 21 24 27 28 29 32 33 35
26 13 10 5 4 15 30 26 13 16 16 26 42 50 51 50 56 56 53 51 50 47 42 39 35 31 29 24 22 19 17 20 18 16 12 13 13 14 16 18 20 23 24 27 30 32 33 35 35
14 22 7 9 10 14 1 21 24 14 10 15 48 56 52 51 55 58 57 53 49 45 40 36 31 25 24 21 18 15 13 13 10 6 3 3 6 9 12 15 18 20 23 25 27 30 34 36 38
34 28 13 14 11 4 5 16 11 1 13 9 30 53 56 56 61 65 62 57 53 47 42 36 29 23 20 18 16 15 13 13 10 7 5 3 5 9 12 14 17 20 22 24 28 33 37 39 42
16 20 5 8 3 5 12 10 14 8 11 14 28 49 58 60 67 69 65 60 54 49 42 36 28 22 20 21 21 20 18 16 13 10 7 5 6 9 12 15 19 21 24 25 28 30 35 39 44
11 21 9 8 11 13 11 13 18 18 27 21 29 49 56 57 67 71 70 64 57 49 44 39 31 27 26 26 26 24 21 18 14 11 8 5 5 9 13 17 21 24 27 29 31 34 38 42 47
13 14 9 6 9 8 9 11 11 25 30 36 44 51 60 65 74 78 75 66 59 53 49 45 38 33 32 31 30 26 23 20 17 13 8 5 9 14 18 23 27 30 33 35 38 41 43 46 51
22 21 27 13 13 9 6 12 7 4 18 34 37 45 52 63 73 76 77 73 66 58 55 51 42 38 36 36 33 32 29 26 20 14 10 9 13 19 24 29 33 36 38 41 43 46 50 54 58
Wind_Direction_500mb
318 8 33 86 202 120 93 88 335 137 133 49 4 8 66 54 24 58 34 101 95 176 183 180 177 177 174 173 175 177 166 136 97 66 58 57 58 56 80 16 6 354 355 24 29 34 40 44 42
110 126 101 160 174 137 105 100 115 66 50 95 105 76 83 70 52 70 62 102 105 165 180 183 182 181 181 180 180 186 195 202 111 34 26 26 31 49 50 356 341 341 340 14 13 21 23 26 26
127 125 207 74 104 117 124 165 126 96 29 170 121 61 38 43 44 62 63 99 105 155 180 186 188 192 191 187 191 197 208 209 247 344 353 356 5 17 17 350 346 3 10 6 352 356 2 358 348
151 61 59 193 112 90 102 146 164 156 127 71 115 97 81 46 64 72 79 89 97 147 181 190 193 199 201 204 206 211 217 216 239 286 316 327 334 343 351 352 358 2 14 15 8 345 345 337 325
122 111 116 115 106 117 185 151 192 166 101 83 52 95 85 43 88 107 91 88 110 145 164 192 202 206 210 215 215 213 216 223 244 271 287 302 310 327 326 334 343 344 4 13 20 8 354 347 330
114 116 171 163 142 158 186 185 189 148 127 113 72 125 91 58 142 123 115 105 116 146 164 180 201 212 216 218 222 217 216 226 241 258 261 264 255 328 336 328 333 332 346 6 16 13 7 356 343
120 198 129 155 152 170 157 188 189 131 146 85 94 151 143 43 85 157 191 194 172 163 170 181 193 205 215 222 230 225 226 234 239 247 252 251 246 275 289 303 316 322 331 338 355 3 360 352 355
112 104 144 175 181 170 155 161 145 69 110 128 61 161 168 233 304 226 230 228 219 211 205 204 200 200 208 216 224 220 229 241 249 254 260 262 258 262 268 289 300 310 321 315 329 341 343 344 341
122 180 171 173 178 147 150 173 168 243 153 86 108 170 246 270 253 230 232 237 235 237 240 239 234 227 217 213 216 219 223 236 245 251 255 262 261 265 280 290 292 305 312 319 323 313 323 330 327
271 237 163 169 163 152 146 165 168 186 171 147 124 29 325 309 244 224 224 229 234 241 245 243 241 238 235 230 219 217 213 221 235 237 241 243 255 259 272 282 289 294 299 306 322 330 326 326 320
32 272 146 176 166 146 154 181 157 199 204 116 158 179 154 113 135 192 212 217 220 228 239 241 237 235 232 228 221 212 209 204 218 222 235 241 242 249 258 275 290 299 305 306 313 319 325 326 320
197 153 157 145 188 162 191 157 198 213 173 193 189 183 175 338 296 275 272 276 280 272 262 251 241 235 229 225 221 209 200 197 216 217 223 232 250 260 265 269 273 290 304 301 306 310 315 322 321
206 180 197 176 192 220 211 222 242 179 190 207 194 168 195 301 305 307 296 282 272 271 270 267 263 248 234 220 215 202 192 192 206 216 228 234 235 240 253 259 273 272 283 276 296 295 305 317 316
148 221 251 244 218 210 212 218 193 194 188 179 170 180 189 202 249 303 310 302 288 263 255 263 270 261 224 202 196 192 187 192 203 214 229 239 246 251 248 244 252 260 267 272 284 283 288 290 298
31 282 276 231 205 217 180 203 225 173 163 159 168 165 145 108 67 34 314 2 41 48 36 355 251 233 196 184 185 185 179 175 180 171 165 213 270 272 270 268 261 265 256 269 281 287 293 289 291
258 261 255 132 167 171 195 209 157 166 165 157 142 127 67 26 40 57 96 114 112 99 96 92 91 110 142 157 164 168 167 157 152 163 162 248 264 270 274 278 260 280 274 287 283 283 283 288 289
214 255 228 283 188 152 217 215 156 174 185 175 168 168 171 124 94 134 140 132 119 104 96 97 103 109 121 140 152 155 156 157 154 139 179 238 270 285 298 296 291 301 302 306 304 303 297 296 294
205 220 231 239 168 210 225 244 166 182 203 199 180 167 142 135 126 122 122 127 128 122 114 109 110 112 119 129 133 133 134 123 124 153 173 233 252 275 295 302 303 307 313 306 304 304 303 300 300
180 220 252 200 171 244 239 256 198 188 192 194 189 173 153 145 129 125 125 125 126 126 116 113 111 112 117 122 126 132 135 128 135 130 119 154 249 288 293 292 284 284 284 297 307 313 312 310 311
227 245 252 271 206 238 249 253 254 201 222 212 189 176 165 149 136 130 126 127 125 125 124 119 114 111 113 116 116 119 116 117 109 100 95 87 72 59 51 32 14 355 338 320 318 315 317 319 322
226 230 240 260 151 213 275 264 247 210 207 195 188 178 170 162 153 143 135 131 127 125 121 119 116 116 113 108 103 104 107 104 100 95 87 77 61 50 44 40 38 30 25 22 19 12 6 3 358
236 221 238 237 242 260 223 280 232 206 204 199 188 182 173 166 158 148 141 137 133 128 124 122 120 118 114 109 102 102 102 105 102 96 82 69 56 45 37 34 29 23 22 18 16 14 12 8 8
257 142 206 220 237 267 212 263 239 195 223 203 191 183 177 171 166 159 153 147 142 136 132 129 126 120 114 114 111 103 107 119 108 93 85 71 58 46 39 33 28 22 20 18 15 10 7 6 3
137 105 89 95 203 252 227 218 206 212 219 181 186 187 182 177 174 169 164 157 151 147 143 136 134 133 133 139 136 124 95 98 95 87 69 48 33 23 13 10 6 7 9 6 4 3 1 1 357
186 164 195 223 210 249 152 214 252 237 180 188 188 185 183 181 180 176 172 167 163 160 155 149 145 139 140 143 131 116 107 111 112 96 79 40 359 346 349 352 354 354 355 356 353 351 349 349 347
193 192 199 214 205 223 129 226 238 319 136 149 186 182 181 183 186 184 180 177 177 174 167 163 161 157 147 153 155 155 156 162 168 176 194 253 315 321 330 331 335 340 341 341 340 341 340 340 340
179 214 178 113 97 257 208 236 250 185 193 176 167 179 186 188 190 189 187 187 186 184 179 178 174 175 172 175 181 183 184 189 197 202 218 249 287 310 318 324 326 329 330 331 330 331 330 330 332
200 145 170 217 214 231 210 240 223 202 208 184 186 192 190 192 195 195 195 194 194 192 190 188 189 189 190 193 196 197 201 207 205 214 218 241 297 312 323 324 324 324 324 323 325 327 328 330 331
174 194 209 210 220 231 258 233 218 199 192 189 198 196 193 195 197 199 199 200 201 200 201 202 199 201 202 204 206 207 212 216 218 219 227 281 315 322 324 322 320 320 319 320 321 323 326 327 328
233 222 191 201 189 245 306 248 160 161 182 187 191 196 197 201 201 202 203 205 205 208 210 210 209 209 211 213 214 215 218 219 218 225 251 292 314 321 323 320 320 318 318 318 320 323 325 326 327
Wind_Speed_850mb
3 1 1 1 5 4 8 8 4 4 3 4 4 4 18 13 11 9 4 5 3 17 29 27 28 26 23 20 17 14 10 6 5 6 8 7 8 8 9 10 13 18 17 13 13 12 12 12 12
3 4 3 1 3 12 11 3 7 8 5 1 3 2 8 14 11 9 8 5 7 18 29 27 28 25 22 19 17 14 9 4 2 4 6 7 7 6 4 9 14 17 14 10 10 10 10 10 9
7 6 2 2 3 10 11 7 6 5 3 1 5 7 5 8 12 8 10 10 10 16 29 28 27 24 22 20 18 15 11 8 2 4 6 6 6 5 5 8 14 22 15 11 8 7 7 7 7
4 2 6 1 16 6 7 8 6 8 4 3 3 11 10 12 6 9 13 13 12 12 22 29 28 26 23 22 20 18 14 12 6 4 6 7 7 6 7 7 12 23 22 18 14 8 8 8 8
4 1 4 9 8 6 3 2 4 5 5 7 1 7 10 10 11 9 10 11 13 16 17 23 28 28 26 24 22 22 20 16 11 9 9 7 4 6 8 11 13 17 19 17 16 10 9 8 9
2 0 6 11 10 5 4 4 5 5 4 5 5 10 9 8 6 6 6 7 9 14 19 20 24 30 29 26 24 22 23 20 17 15 10 7 4 4 6 7 9 13 15 15 16 11 10 10 9
4 2 6 11 16 11 8 3 6 6 9 8 5 7 14 8 5 3 5 5 6 12 18 21 22 27 32 32 29 24 22 22 19 16 14 12 11 9 7 10 13 14 16 16 16 14 12 10 9
6 4 11 7 17 11 8 7 4 1 7 5 2 7 9 8 1 3 7 9 11 9 11 15 20 26 30 32 33 29 28 26 23 20 17 15 16 17 15 14 19 18 20 19 16 16 16 12 10
6 6 10 15 15 12 8 10 4 2 2 5 4 3 8 14 10 11 14 14 15 17 17 17 19 21 25 30 33 35 31 29 24 20 18 18 17 19 18 20 21 19 21 25 23 18 16 16 13
3 4 9 6 8 13 11 5 5 7 3 7 5 2 2 4 7 14 19 21 21 23 25 26 25 25 25 25 27 28 30 29 24 22 21 20 21 22 24 24 19 19 22 25 25 29 25 21 19
1 1 8 9 8 8 9 5 5 5 6 4 6 8 3 3 2 4 7 8 11 11 13 18 25 29 30 29 27 26 27 27 26 24 25 26 26 31 27 24 21 22 21 24 26 27 28 28 26
4 4 7 8 10 8 6 5 6 10 5 13 7 11 4 0 2 3 5 9 10 11 12 13 17 24 31 33 30 28 22 25 26 31 24 20 21 26 22 22 20 21 19 23 26 26 26 33 30
5 6 7 9 12 9 9 14 7 12 19 15 12 9 2 4 7 8 8 8 10 11 12 12 12 15 23 29 32 28 25 27 28 27 26 27 26 17 21 18 21 20 23 18 20 22 27 29 31
3 5 8 10 10 12 12 8 9 11 22 21 15 10 8 5 4 5 7 7 6 6 9 11 11 9 13 26 32 32 28 25 26 24 21 21 26 27 28 26 25 23 26 25 23 23 25 27 28
0 8 11 15 10 11 16 8 17 21 27 18 13 8 4 3 4 1 1 1 2 3 4 2 4 6 10 27 36 32 26 21 20 16 11 5 9 16 17 20 23 27 28 26 27 32 34 30 34
2 4 8 7 9 5 16 7 14 30 25 15 9 4 2 4 5 4 4 6 9 11 11 13 12 11 16 26 31 30 26 22 19 13 8 8 13 16 18 15 14 14 20 22 24 30 35 38 41
5 11 14 5 6 5 15 2 20 26 19 13 10 8 6 3 2 3 5 8 12 16 20 23 25 25 24 29 31 27 22 20 15 10 5 7 7 9 9 10 18 17 18 21 24 25 28 31 34
13 11 10 13 6 9 12 20 19 21 17 13 13 11 8 6 6 8 11 14 18 22 24 27 30 33 32 32 32 33 27 23 15 8 6 4 6 7 10 13 14 17 18 20 23 23 23 24 27
3 8 18 5 2 7 21 25 23 20 16 19 18 14 13 12 15 17 19 22 26 29 32 35 37 38 38 35 30 25 24 23 17 11 8 2 2 4 6 10 13 16 17 19 19 21 24 27 31
11 17 28 10 6 8 17 26 27 26 22 26 27 26 23 23 23 28 30 32 35 37 37 37 36 36 34 33 34 32 31 28 24 21 18 15 11 9 8 7 7 9 11 12 16 18 19 24 29
22 27 24 17 4 9 11 30 37 15 16 17 25 27 29 34 42 44 44 46 48 49 51 51 50 48 46 41 37 34 31 29 25 22 18 17 16 16 16 17 18 18 18 19 21 22 24 25 26
28 24 19 15 8 18 4 15 10 17 19 24 31 35 36 35 38 46 51 53 50 49 48 45 42 39 38 34 29 27 23 21 21 17 15 14 13 14 15 17 18 20 23 23 27 28 30 30 32
12 10 18 13 19 12 15 14 14 8 21 27 39 40 41 40 47 51 50 52 51 48 44 41 38 35 32 26 20 14 13 18 19 17 14 14 15 16 18 19 21 21 24 27 28 29 32 33 35
26 13 10 5 4 15 30 26 13 16 16 26 42 50 51 50 56 56 53 51 50 47 42 39 35 31 29 24 22 19 17 20 18 16 12 13 13 14 16 18 20 23 24 27 30 32 33 35 35
14 22 7 9 10 14 1 21 24 14 10 15 48 56 52 51 55 58 57 53 49 45 40 36 31 25 24 21 18 15 13 13 10 6 3 3 6 9 12 15 18 20 23 25 27 30 34 36 38
34 28 13 14 11 4 5 16 11 1 13 9 30 53 56 56 61 65 62 57 53 47 42 36 29 23 20 18 16 15 13 13 10 7 5 3 5 9 12 14 17 20 22 24 28 33 37 39 42
16 20 5 8 3 5 12 10 14 8 11 14 28 49 58 60 67 69 65 60 54 49 42 36 28 22 20 21 21 20 18 16 13 10 7 5 6 9 12 15 19 21 24 25 28 30 35 39 44
11 21 9 8 11 13 11 13 18 18 27 21 29 49 56 57 67 71 70 64 57 49 44 39 31 27 26 26 26 24 21 18 14 11 8 5 5 9 13 17 21 24 27 29 31 34 38 42 47
13 14 9 6 9 8 9 11 11 25 30 36 44 51 60 65 74 78 75 66 59 53 49 45 38 33 32 31 30 26 23 20 17 13 8 5 9 14 18 23 27 30 33 35 38 41 43 46 51
22 21 27 13 13 9 6 12 7 4 18 34 37 45 52 63 73 76 77 73 66 58 55 51 42 38 36 36 33 32 29 26 20 14 10 9 13 19 24 29 33 36 38 41 43 46 50 54 58
Wind_Direction_850mb
318 8 33 86 202 120 93 88 335 137 133 49 4 8 66 54 24 58 34 101 95 176 183 180 177 177 174 173 175 177 166 136 97 66 58 57 58 56 80 16 6 354 355 24 29 34 40 44 42
110 126 101 160 174 137 105 100 115 66 50 95 105 76 83 70 52 70 62 102 105 165 180 183 182 181 181 180 180 186 195 202 111 34 26 26 31 49 50 356 341 341 340 14 13 21 23 26 26
127 125 207 74 104 117 124 165 126 96 29 170 121 61 38 43 44 62 63 99 105 155 180 186 188 192 191 187 191 197 208 209 247 344 353 356 5 17 17 350 346 3 10 6 352 356 2 358 348
151 61 59 193 112 90 102 146 164 156 127 71 115 97 81 46 64 72 79 89 97 147 181 190 193 199 201 204 206 211 217 216 239 286 316 327 334 343 351 352 358 2 14 15 8 345 345 337 325
122 111 116 115 106 117 185 151 192 166 101 83 52 95 85 43 88 107 91 88 110 145 164 192 202 206 210 215 215 213 216 223 244 271 287 302 310 327 326 334 343 344 4 13 20 8 354 347 330
114 116 171 163 142 158 186 185 189 148 127 113 72 125 91 58 142 123 115 105 116 146 164 180 201 212 216 218 222 217 216 226 241 258 261 264 255 328 336 328 333 332 346 6 16 13 7 356 343
120 198 129 155 152 170 157 188 189 131 146 85 94 151 143 43 85 157 191 194 172 163 170 181 193 205 215 222 230 225 226 234 239 247 252 251 246 275 289 303 316 322 331 338 355 3 360 352 355
112 104 144 175 181 170 155 161 145 69 110 128 61 161 168 233 304 226 230 228 219 211 205 204 200 200 208 216 224 220 229 241 249 254 260 262 258 262 268 289 300 310 321 315 329 341 343 344 341
122 180 171 173 178 147 150 173 168 243 153 86 108 170 246 270 253 230 232 237 235 237 240 239 234 227 217 213 216 219 223 236 245 251 255 262 261 265 280 290 292 305 312 319 323 313 323 330 327
271 237 163 169 163 152 146 165 168 186 171 147 124 29 325 309 244 224 224 229 234 241 245 243 241 238 235 230 219 217 213 221 235 237 241 243 255 259 272 282 289 294 299 306 322 330 326 326 320
32 272 146 176 166 146 154 181 157 199 204 116 158 179 154 113 135 192 212 217 220 228 239 241 237 235 232 228 221 212 209 204 218 222 235 241 242 249 258 275 290 299 305 306 313 319 325 326 320
197 153 157 145 188 162 191 157 198 213 173 193 189 183 175 338 296 275 272 276 280 272 262 251 241 235 229 225 221 209 200 197 216 217 223 232 250 260 265 269 273 290 304 301 306 310 315 322 321
206 180 197 176 192 220 211 222 242 179 190 207 194 168 195 301 305 307 296 282 272 271 270 267 263 248 234 220 215 202 192 192 206 216 228 234 235 240 253 259 273 272 283 276 296 295 305 317 316
148 221 251 244 218 210 212 218 193 194 188 179 170 180 189 202 249 303 310 302 288 263 255 263 270 261 224 202 196 192 187 192 203 214 229 239 246 251 248 244 252 260 267 272 284 283 288 290 298
31 282 276 231 205 217 180 203 225 173 163 159 168 165 145 108 67 34 314 2 41 48 36 355 251 233 196 184 185 185 179 175 180 171 165 213 270 272 270 268 261 265 256 269 281 287 293 289 291
258 261 255 132 167 171 195 209 157 166 165 157 142 127 67 26 40 57 96 114 112 99 96 92 91 110 142 157 164 168 167 157 152 163 162 248 264 270 274 278 260 280 274 287 283 283 283 288 289
214 255 228 283 188 152 217 215 156 174 185 175 168 168 171 124 94 134 140 132 119 104 96 97 103 109 121 140 152 155 156 157 154 139 179 238 270 285 298 296 291 301 302 306 304 303 297 296 294
205 220 231 239 168 210 225 244 166 182 203 199 180 167 142 135 126 122 122 127 128 122 114 109 110 112 119 129 133 133 134 123 124 153 173 233 252 275 295 302 303 307 313 306 304 304 303 300 300
180 220 252 200 171 244 239 256 198 188 192 194 189 173 153 145 129 125 125 125 126 126 116 113 111 112 117 122 126 132 135 128 135 130 119 154 249 288 293 292 284 284 284 297 307 313 312 310 311
227 245 252 271 206 238 249 253 254 201 222 212 189 176 165 149 136 130 126 127 125 125 124 119 114 111 113 116 116 119 116 117 109 100 95 87 72 59 51 32 14 355 338 320 318 315 317 319 322
226 230 240 260 151 213 275 264 247 210 207 195 188 178 170 162 153 143 135 131 127 125 121 119 116 116 113 108 103 104 107 104 100 95 87 77 61 50 44 40 38 30 25 22 19 12 6 3 358
236 221 238 237 242 260 223 280 232 206 204 199 188 182 173 166 158 148 141 137 133 128 124 122 120 118 114 109 102 102 102 105 102 96 82 69 56 45 37 34 29 23 22 18 16 14 12 8 8
257 142 206 220 237 267 212 263 239 195 223 203 191 183 177 171 166 159 153 147 142 136 132 129 126 120 114 114 111 103 107 119 108 93 85 71 58 46 39 33 28 22 20 18 15 10 7 6 3
137 105 89 95 203 252 227 218 206 212 219 181 186 187 182 177 174 169 164 157 151 147 143 136 134 133 133 139 136 124 95 98 95 87 69 48 33 23 13 10 6 7 9 6 4 3 1 1 357
186 164 195 223 210 249 152 214 252 237 180 188 188 185 183 181 180 176 172 167 163 160 155 149 145 139 140 143 131 116 107 111 112 96 79 40 359 346 349 352 354 354 355 356 353 351 349 349 347
193 192 199 214 205 223 129 226 238 319 136 149 186 182 181 183 186 184 180 177 177 174 167 163 161 157 147 153 155 155 156 162 168 176 194 253 315 321 330 331 335 340 341 341 340 341 340 340 340
179 214 178 113 97 257 208 236 250 185 193 176 167 179 186 188 190 189 187 187 186 184 179 178 174 175 172 175 181 183 184 189 197 202 218 249 287 310 318 324 326 329 330 331 330 331 330 330 332
200 145 170 217 214 231 210 240 223 202 208 184 186 192 190 192 195 195 195 194 194 192 190 188 189 189 190 193 196 197 201 207 205 214 218 241 297 312 323 324 324 324 324 323 325 327 328 330 331
174 194 209 210 220 231 258 233 218 199 192 189 198 196 193 195 197 199 199 200 201 200 201 202 199 201 202 204 206 207 212 216 218 219 227 281 315 322 324 322 320 320 319 320 321 323 326 327 328
233 222 191 201 189 245 306 248 160 161 182 187 191 196 197 201 201 202 203 205 205 208 210 210 209 209 211 213 214 215 218 219 218 225 251 292 314 321 323 320 320 318 318 318 320 323 325 326 327